Starlink 30421

operational
NORAD ID: 58107 Int'l Des: 2023-161 Owner: SPXS Country: US Constellation: starlink
LEOCIRCULAR

Starlink 30421について

説明を読み込み中...

リアルタイム位置

3D地球を読み込み中...

次回通過

高度履歴

Altitude vs Time

uPlot chart will show altitude changes over time

軌道要素

1 58107U 23161L 25302.54936711 .00002213 00000-0 86827-4 0 9995
2 58107 53.1615 41.6808 0001319 82.8836 277.2314 15.30204410114529
Epoch: Oct 29, 2025 • Age: 5 hours

現在のステータス

高度 480.6 km
速度 7.63 km/s
衛星直下点 52.31°N, 163.45°E
打ち上げ日 Oct 21, 2023
運用期間 2 years
タイプ internet

技術仕様

分類 Payload
質量 730.00 kg
乾燥質量 700.00 kg
総質量 730.00 kg
長さ 0.30 m
直径 4.10 m
スパン 29.00 m
形状 Box + pan
製造者 SPXS
バスタイプ Starlink V2M
フェーズステータス In Orbit
所有者/国 SPXS/US

大規模コンステレーション

Loading constellations...